Printer-friendly version

IAU Minor Planet Center

Minor Planet Center

MPEC 2006-L36 : 19 TNO RECOVERIES

The following Minor Planet Electronic Circular may be linked-to from your own Web pages, but must not otherwise be redistributed electronically.


Read MPEC 2006-L35 Read MPEC 2006-L37


M.P.E.C. 2006-L36                                Issued 2006 June 7, 23:19 UT

     The Minor Planet Electronic Circulars contain information on unusual
         minor planets and routine data on comets.  They are published
   on behalf of Commission 20 of the International Astronomical Union by the
          Minor Planet Center, Smithsonian Astrophysical Observatory,
                          Cambridge, MA 02138, U.S.A.

                  Supported in part by the Brinson Foundation
                  Supported in part by the TABASGO Foundation
             Prepared using the Tamkin Foundation Computer Network

                              MPC@CFA.HARVARD.EDU
          URL http://cfa-www.harvard.edu/iau/mpc.html  ISSN 1523-6714

                               19 TNO RECOVERIES

Additional Observations:
     J99RL4U  C2000 09 21.25257 21 33 53.27 -14 46 52.8          23.8 R EL036695
     J99RL4U  C2006 04 26.40309 22 07 17.13 -12 23 26.7          22.7 R EL036807
     J99RL4U  C2006 04 27.41524 22 07 19.84 -12 23 13.8                 EL036807
     J99RL4U  C2006 04 28.40535 22 07 22.38 -12 23 01.8                 EL036807
     K03FC7M  C2006 04 26.21625 14 17 11.28 -12 25 42.3          22.1 R EL036807
     K03FC7M  C2006 04 26.30280 14 17 10.88 -12 25 40.2                 EL036807
     K03FC7M  C2006 04 27.22204 14 17 06.70 -12 25 19.4                 EL036807
     K03Q91G  C2004 07 16.11984 20 59 25.47 -19 23 56.9          22.8 R EL036807
     K03Q91G  C2004 07 16.22312 20 59 25.04 -19 23 59.3                 EL036807
     K03Q91G  C2006 04 27.34719 21 12 32.85 -18 23 03.5          23.5 R EL036807
     K03Q91G  C2006 04 28.36019 21 12 34.58 -18 22 58.1                 EL036807
     K04E95V  C2006 04 27.12208 13 38 04.02 -07 01 39.3          22.7 R EL036807
     K04E95V  C2006 04 27.19390 13 38 03.68 -07 01 37.3                 EL036807
     K04E95V  C2006 04 28.07554 13 37 59.75 -07 01 12.8                 EL036807
     K05ET6E  C2006 03 02.22794 09 25 52.64 +16 29 34.0          22.8 R EL036695
     K05ET6E  C2006 03 02.28430 09 25 52.39 +16 29 34.9                 EL036695
     K05ET6E  C2006 03 02.34040 09 25 52.16 +16 29 36.1                 EL036695
     K05ET6E  C2006 04 26.01108 09 23 33.45 +16 38 38.5          21.7 R EL036807
     K05ET6E  C2006 04 28.01271 09 23 32.64 +16 38 37.1                 EL036807
     K05ET7O  C2006 03 02.23948 10 02 30.67 +14 03 28.3          22.7 R EL036695
     K05ET7O  C2006 03 02.29732 10 02 30.40 +14 03 29.9                 EL036695
     K05ET7O  C2006 03 02.35194 10 02 30.14 +14 03 31.4                 EL036695
     K05ET7O  C2006 04 26.02184 09 59 40.74 +14 23 13.9          22.5 R EL036807
     K05ET7O  C2006 04 26.10761 09 59 40.64 +14 23 14.9                 EL036807
     K05ET7O  C2006 04 27.03596 09 59 39.65 +14 23 23.6                 EL036807
     K05ET7X  C2006 04 27.02138 10 01 30.04 +16 35 02.3          21.6 R EL036807
     K05ET7X  C2006 04 27.13153 10 01 29.90 +16 35 02.4                 EL036807
     K05ET7X  C2006 04 28.02385 10 01 28.85 +16 35 02.3                 EL036807
     K05EU2N  C2006 04 22.24450 12 49 51.59 -03 25 17.2          23.8 R EL036304
     K05EU2N  C2006 04 22.29782 12 49 51.38 -03 25 15.9                 EL036304
     K05EU2N  C2006 04 26.08057 12 49 37.20 -03 23 51.2          23.0 R EL036807
     K05EU2N  C2006 04 26.16378 12 49 36.83 -03 23 49.3                 EL036807
     K05EU2N  C2006 04 27.11033 12 49 33.39 -03 23 28.6                 EL036807
     K05EU2N  C2006 04 27.17699 12 49 33.12 -03 23 27.8                 EL036807
     K05EU3M  C2006 04 26.08455 13 17 37.10 -02 01 44.2          22.6 R EL036807
     K05EU3M  C2006 04 26.16780 13 17 36.71 -02 01 42.0                 EL036807
     K05EU3M  C2006 04 27.11423 13 17 32.70 -02 01 19.6                 EL036807
     K05EU3M  C2006 04 27.18598 13 17 32.39 -02 01 18.2                 EL036807
     K05EV8B  C2006 04 27.12208 13 37 15.20 -07 03 17.2          22.0 R EL036807
     K05EV8B  C2006 04 27.19390 13 37 14.90 -07 03 15.3                 EL036807
     K05EV8B  C2006 04 28.07554 13 37 11.21 -07 02 54.4                 EL036807
     K05EV8C  C2006 03 02.37189 10 26 15.87 +11 44 49.5          22.3 R EL036695
     K05EV8C  C2006 03 02.42405 10 26 15.65 +11 44 50.9                 EL036695
     K05EV8C  C2006 04 26.03429 10 23 11.31 +12 01 29.3          21.7 R EL036807
     K05EV8C  C2006 04 26.11970 10 23 11.14 +12 01 29.9                 EL036807
     K05EV8C  C2006 04 27.05742 10 23 09.59 +12 01 37.1                 EL036807
     K05EV8R  C2006 04 26.03038 10 04 52.76 +12 22 44.5          21.7 R EL036807
     K05EV8R  C2006 04 26.11591 10 04 52.59 +12 22 44.9                 EL036807
     K05EV8R  C2006 04 27.04467 10 04 51.07 +12 22 48.4                 EL036807
     K05EV8W  C2006 03 02.37572 10 27 42.89 +10 09 42.7          22.4 R EL036695
     K05EV8W  C2006 03 02.42785 10 27 42.66 +10 09 44.0                 EL036695
     K05EV8W  C2006 03 02.48023 10 27 42.45 +10 09 44.9                 EL036695
     K05EV8W  C2006 04 27.05357 10 24 46.44 +10 26 34.0          21.8 R EL036807
     K05EV8W  C2006 04 28.03607 10 24 44.90 +10 26 42.2                 EL036807
     K05EV8W  C2006 04 28.10994 10 24 44.79 +10 26 42.9                 EL036807
     K05GI6X  C2006 03 02.39898 11 38 06.18 +03 25 11.4          22.7 R EL036695
     K05GI6X  C2006 03 02.45107 11 38 05.95 +03 25 13.0                 EL036695
     K05GI6X  C2006 03 02.50340 11 38 05.73 +03 25 14.5                 EL036695
     K05GI6X  C2006 04 26.05300 11 34 28.71 +03 49 02.4          22.1 R EL036807
     K05GI6X  C2006 04 26.13648 11 34 28.45 +03 49 04.0                 EL036807
     K05GI6X  C2006 04 28.04040 11 34 22.89 +03 49 39.7                 EL036807
     K05GI7A  C2006 04 26.19356 14 00 47.21 -14 18 32.5          22.2 R EL036807
     K05GI7A  C2006 04 26.27932 14 00 46.75 -14 18 30.2                 EL036807
     K05GI7A  C2006 04 27.21054 14 00 41.85 -14 18 08.9                 EL036807
     K05JH4Z  C2006 04 22.25951 14 02 08.42 -09 07 30.9          22.3 R EL036304
     K05JH4Z  C2006 04 22.31207 14 02 08.18 -09 07 30.2                 EL036304
     K05JH4Z  C2006 04 26.28712 14 01 49.92 -09 05 56.9          21.9 R EL036807
     K05JH4Z  C2006 04 28.08336 14 01 41.69 -09 05 15.6                 EL036807
     K05JH5A  C2006 04 22.26917 14 34 19.34 -16 12 28.3          22.2 R EL036304
     K05JH5A  C2006 04 22.32154 14 34 19.10 -16 12 27.5                 EL036304
     K05JH5A  C2006 04 26.22973 14 34 02.35 -16 10 58.1          21.0 R EL036807
     K05JH5A  C2006 04 26.31446 14 34 01.98 -16 10 56.0                 EL036807
     K05JH5A  C2006 04 28.09123 14 33 54.30 -16 10 15.5                 EL036807
     K05JH7H  C2006 04 22.22848 13 53 22.83 -08 02 56.7          22.7 R EL036304
     K05JH7H  C2006 04 22.28730 13 53 22.54 -08 02 54.6                 EL036304
     K05JH7H  C2006 04 26.08861 13 53 04.83 -08 01 18.0          22.2 R EL036807
     K05JH7H  C2006 04 26.17173 13 53 04.45 -08 01 16.1                 EL036807
     K05JH7H  C2006 04 27.14867 13 52 59.93 -08 00 51.1                 EL036807
     K05JH7H  C2006 04 27.19828 13 52 59.69 -08 00 49.9                 EL036807
     K05JH7H  C2006 05 01.33550 13 52 40.65 -07 59 07.3          22.9 R EL036695
     K05JH7H  C2006 05 01.41835 13 52 40.25 -07 59 05.4                 EL036695
     K05JH7H  C2006 05 02.40406 13 52 35.76 -07 58 41.7                 EL036695
     K05JH9P  C2006 04 22.25478 13 59 40.69 -10 00 37.1          22.3 R EL036304
     K05JH9P  C2006 04 22.30734 13 59 40.44 -10 00 36.1                 EL036304
     K05JH9P  C2006 04 26.09603 13 59 23.08 -09 59 01.4          21.5 R EL036807
     K05JH9P  C2006 04 26.17946 13 59 22.68 -09 58 59.3                 EL036807
     K05JH9P  C2006 04 27.15246 13 59 18.25 -09 58 35.2                 EL036807
     K05JH9P  C2006 04 27.20233 13 59 18.01 -09 58 33.9                 EL036807

Observer details:
304 Las Campanas Observatory.  Observers S. D. Kern, S. Lee.  Measurer
    S. D. Kern.  Clay 6.5-m telescope + CCD.
695 Kitt Peak.  Observers L. H. Wasserman, R. L. Millis, D. E. Trilling.
    Measurers L. H. Wasserman, R. L. Millis, M. W. Buie.  4-m f/2.8 reflector
    + CCD,
807 Cerro Tololo.  Observers M. W. Buie, R. L. Millis, S. D. Kern, J. L.
    Elliot, J. F. Kane, M. E. Teyssier.  Measurers M. W. Buie, R. L. Millis,
    S. D. Kern, A. A. S. Gulbis, T. A. Jones, M. Leung, A. L. Vax,
    K. B. Clancy.  4-m f/2.9 reflector + CCD.

Orbital elements:
1999 RU214
Epoch 2006 Mar. 6.0 TT = JDT 2453800.5                  MPC
M  45.75472              (2000.0)            P               Q
n   0.00236945     Peri.  107.45209     -0.41586251     +0.90805845
a  55.7233941      Node   137.86262     -0.86005524     -0.37486672
e   0.3435385      Incl.    4.26387     -0.29557295     -0.18682824
P 416              H    7.3           G   0.15           U   3
Residuals in seconds of arc
J9996  568  0.0   0.1-    J99A8  568  0.1-  0.1-    J99BD  568  0.2-  0.1-
J9996  568  0.0   0.0     J99A8  568  0.2+  0.0     K009L  695  0.0   0.1-
J9996  568  0.1-  0.2+    J99A9  568  0.2+  0.1+    K064Q  807  0.0   0.1+
J999A  568  0.1+  0.1+    J99BB  568  0.1+  0.1-    K064R  807  0.2+  0.1+
J999A  568  0.2-  0.0     J99BC  568  0.0   0.0     K064S  807  0.2-  0.2-

